DMSP 5D-2 F13 DEB

基本信息
目录编号:
42315
目录名称:
DMSP 5D-2 F13 DEB
国际标识:
1995-015JH
轨道中心:
EARTH
物体状态:
在轨
发射日期:
1995-03-24 UTC
轨道信息
数据来源: 国际轨道数据
星历时间: 2026-07-13T10:55:03+0800
半长轴: 7092.035km
偏心率: 0.0024447
轨道倾角: 98.550°
近地点辐角: 97.769°
升交点赤经: 254.224°
平近点角: 262.628°
近地点: 696.56km
远地点: 731.236km
周期: 99.064分钟
每日圈数: 14.536053
详细信息
发射场:
AFWTR
轨道高度:
LEO
数据来源:
AOE Integration Group
参考系:
TEME
时间系统:
UTC
历元类型:
SGP4
2D轨道图
3D轨道图
轨道高度分析图
轨道倾角分析图
轨道综合分析图
查看轨道综合分析图